Total_Precipitation_Accumulation
2.12 2.28 2.28 2.24 2.30 2.33 2.44 2.65 2.98 2.93 2.70 2.39 2.22 2.05 1.97 1.98 2.07 1.75 1.71 1.67 1.57 1.57 1.58 1.61 1.69 1.86 1.92 1.94 1.82 1.71 1.68 1.73 1.85 1.98 2.22 2.54 2.87 3.22
2.01 2.00 1.95 1.91 2.05 2.07 2.18 2.31 2.56 2.87 2.75 2.27 2.09 2.01 1.99 1.86 2.15 1.91 1.84 1.81 1.69 1.83 1.92 1.85 1.83 1.99 2.11 2.14 1.98 1.79 1.70 1.68 1.72 1.74 1.84 2.05 2.34 2.66
1.62 1.60 1.64 1.74 1.90 1.91 1.95 2.09 2.32 2.62 2.76 2.32 2.06 2.13 2.26 2.18 2.22 2.10 1.92 1.91 1.88 2.23 2.34 2.51 2.26 2.16 2.22 2.23 2.17 1.92 1.74 1.66 1.70 1.77 1.86 1.98 2.07 2.23
1.51 1.58 1.56 1.64 1.79 1.84 1.92 1.98 2.16 2.47 2.64 2.57 2.30 2.29 2.29 2.25 2.35 2.29 2.00 1.83 1.83 2.28 2.51 2.80 2.73 2.45 2.44 2.30 2.18 1.98 1.80 1.67 1.65 1.69 1.74 1.80 1.87 1.97
1.42 1.51 1.57 1.80 1.83 1.82 1.90 1.96 2.05 2.17 2.54 2.58 2.37 2.39 2.36 2.38 2.60 2.36 2.13 2.14 1.78 2.06 2.52 2.86 2.93 2.89 2.93 2.79 2.51 2.14 1.88 1.67 1.53 1.50 1.54 1.58 1.60 1.62
1.40 1.47 1.57 1.76 1.89 1.99 1.93 2.03 2.10 2.25 2.45 2.58 2.54 2.53 2.56 2.56 2.58 2.48 2.35 2.19 1.94 1.83 2.32 2.74 3.04 3.11 3.26 3.33 3.03 2.56 2.14 1.82 1.57 1.42 1.32 1.26 1.29 1.31
1.47 1.45 1.47 1.59 1.72 1.73 1.58 1.73 1.95 2.23 2.31 2.52 2.57 2.62 2.53 2.60 2.47 2.24 2.19 2.18 2.00 1.83 2.03 2.36 3.00 3.31 3.34 3.43 3.35 2.89 2.41 2.01 1.70 1.47 1.32 1.22 1.20 1.23
1.50 1.52 1.46 1.38 1.30 1.27 1.31 1.40 1.62 1.94 2.30 2.57 2.52 2.52 2.41 2.32 2.34 2.29 2.31 2.33 2.26 1.89 1.86 2.07 2.56 3.32 3.50 3.40 3.36 2.83 2.33 1.98 1.74 1.53 1.39 1.30 1.27 1.28
1.68 1.69 1.39 1.22 1.32 1.26 1.30 1.37 1.49 1.67 2.00 2.42 2.54 2.36 2.36 2.32 2.42 2.42 2.51 2.52 2.34 1.98 2.04 2.22 2.51 3.12 3.21 3.14 3.11 2.52 2.12 1.85 1.63 1.48 1.36 1.28 1.23 1.26
1.51 1.56 1.57 1.48 1.39 1.46 1.49 1.52 1.60 1.72 1.83 1.90 2.23 2.15 2.00 2.12 2.26 2.33 2.52 2.55 2.40 2.13 2.17 2.40 2.52 2.93 2.83 2.87 2.79 2.34 2.02 1.81 1.57 1.40 1.30 1.26 1.22 1.25
1.31 1.31 1.29 1.31 1.43 1.64 1.77 1.96 2.02 2.09 1.96 2.08 2.20 2.11 2.01 2.04 2.02 2.21 2.58 2.64 2.44 2.20 2.17 2.47 2.57 2.64 2.68 2.70 2.41 2.24 1.98 1.82 1.61 1.41 1.30 1.21 1.16 1.22
1.35 1.32 1.19 1.11 1.28 1.47 1.69 2.04 2.18 2.26 2.15 2.24 2.46 2.42 2.19 2.23 2.30 2.27 2.58 2.77 2.63 2.46 2.14 2.26 2.43 2.49 2.67 2.51 2.28 2.12 2.06 2.11 1.89 1.61 1.43 1.25 1.13 1.08
1.26 1.29 1.23 1.14 1.19 1.44 1.65 1.86 2.02 2.13 2.25 2.38 2.41 2.40 2.43 2.42 2.42 2.38 2.47 2.57 2.54 2.38 2.03 2.24 2.38 2.47 2.58 2.52 2.43 2.41 2.37 2.35 2.19 2.03 1.86 1.62 1.39 1.21
1.32 1.30 1.32 1.30 1.29 1.49 1.63 1.86 2.10 2.22 2.24 2.38 2.26 2.14 2.12 2.14 2.19 2.20 2.25 2.24 2.16 2.10 2.07 2.24 2.50 2.70 2.68 2.56 2.61 2.58 2.65 2.73 2.61 2.45 2.26 2.06 1.81 1.68
1.25 1.33 1.36 1.34 1.39 1.64 1.82 2.03 2.21 2.28 2.35 2.29 2.10 1.97 1.88 1.92 1.98 2.11 2.20 2.23 2.03 1.82 1.73 1.95 2.29 2.54 2.69 2.62 2.70 2.78 2.89 2.99 2.90 2.84 2.66 2.41 2.18 1.96
1.17 1.34 1.45 1.50 1.60 1.84 2.05 2.24 2.32 2.24 2.12 2.09 2.00 1.94 1.86 1.86 1.93 1.90 2.00 2.12 2.14 2.02 1.84 1.83 2.12 2.52 2.65 2.53 2.61 2.74 2.89 3.19 3.09 2.86 2.71 2.65 2.48 2.23
1.13 1.30 1.46 1.60 1.78 1.96 2.12 2.19 2.17 2.08 1.99 1.83 1.78 1.89 1.91 1.84 1.87 1.85 1.88 1.94 2.03 2.02 1.99 1.99 2.06 2.23 2.31 2.46 2.63 2.67 2.82 3.01 3.05 2.86 2.70 2.68 2.60 2.39
1.08 1.30 1.48 1.59 1.76 1.93 2.06 2.06 1.99 1.89 1.79 1.68 1.64 1.60 1.61 1.59 1.65 1.69 1.68 1.72 1.79 1.75 1.71 1.79 1.98 2.20 2.22 2.21 2.36 2.56 2.67 2.84 2.88 2.74 2.52 2.54 2.65 2.57
1.00 1.24 1.42 1.57 1.77 1.90 1.89 1.86 1.86 1.79 1.70 1.63 1.59 1.49 1.42 1.38 1.38 1.38 1.39 1.45 1.46 1.47 1.45 1.50 1.67 1.92 2.07 2.17 2.12 2.17 2.38 2.55 2.55 2.41 2.29 2.31 2.48 2.56
0.94 1.18 1.36 1.49 1.62 1.73 1.77 1.77 1.74 1.67 1.59 1.54 1.60 1.57 1.47 1.40 1.32 1.30 1.30 1.28 1.31 1.31 1.31 1.26 1.22 1.36 1.58 1.74 1.92 1.95 1.95 2.05 2.13 2.20 2.12 2.14 2.22 2.22
0.98 1.14 1.26 1.39 1.42 1.43 1.47 1.52 1.57 1.57 1.51 1.46 1.44 1.46 1.41 1.35 1.24 1.16 1.14 1.06 1.12 1.24 1.24 1.13 1.06 1.13 1.28 1.49 1.63 1.59 1.55 1.71 1.81 1.83 1.82 1.88 1.91 1.85
0.98 1.08 1.16 1.22 1.22 1.22 1.23 1.25 1.31 1.36 1.37 1.32 1.28 1.31 1.30 1.26 1.19 1.14 1.12 1.11 1.10 1.08 1.03 1.01 1.06 1.14 1.24 1.42 1.50 1.50 1.47 1.43 1.50 1.53 1.55 1.57 1.59 1.75
0.96 0.99 1.03 1.07 1.06 1.08 1.13 1.15 1.18 1.21 1.23 1.25 1.20 1.19 1.17 1.18 1.14 1.14 1.14 1.12 1.11 1.06 1.05 1.06 1.04 1.07 1.10 1.20 1.33 1.38 1.40 1.40 1.41 1.42 1.41 1.48 1.44 1.46